Estevan Point, British Columbia

5:42 AM PDT on March 24, 2017 (GMT -0700)
Estevan Point

Weather History for CWEB - February, 2013

Change the Weather History Date:

Thursday, February 28, 2013

  Actual Average Record
Temperature  
Mean Temperature 42 °F -  
Max Temperature 47 °F - - ()
Min Temperature 38 °F - - ()
Degree Days  
Heating Degree Days 22    
Moisture  
Dew Point -    
Average Humidity    
Maximum Humidity    
Minimum Humidity    
Precipitation  
Precipitation 1.50 in - - ()
Sea Level Pressure  
Sea Level Pressure 30.10 in    
Wind  
Wind Speed 11 mph ()    
Max Wind Speed 22 mph    
Max Gust Speed 34 mph    
T = Trace of Precipitation, MM = Missing Value Source: Averaged Metar Reports

Daily Weather History Graph

Daily Weather History Graph

Search for Another Location

Airport or City:

Trip Planner

Search our weather history database for the weather conditions in past years. The results will help you decide how hot, cold, wet, or windy it might be!

Date:

Astronomy

Feb. 28, 2013 Rise Set
Actual Time 7:09 AM PST 6:08 PM PST
Civil Twilight 6:37 AM PST 6:40 PM PST
Nautical Twilight 6:01 AM PST 7:17 PM PST
Astronomical Twilight 5:24 AM PST 7:54 PM PST
Moon 10:07 PM PST (2/28) 8:01 AM PST (2/28)
Length of Visible Light 12h 02m
Length of Day
10h 58m
Waning Gibbous, 90% of the Moon is Illuminated
Feb 28
Waning Gibbous
Mar 4
Last Quarter
Mar 11
New
Mar 19
First Quarter
Mar 27
Full

Hourly Weather History & Observations

Time (PST) Temp. Windchill Dew Point Humidity Pressure Visibility Wind Dir Wind Speed Gust Speed Precip Events Conditions
12:00 AM 39.4 °F 35.2 °F - N/A% 30.19 in - NE 5.8 mph - N/A   Unknown
1:00 AM 38 °F - - % 30.17 in - ENE 8.1 mph - -  
1:00 AM 38.5 °F 32.7 °F - N/A% 30.17 in - ENE 8.1 mph - N/A   Unknown
2:00 AM 39.0 °F 33.4 °F - N/A% 30.15 in - ENE 8.1 mph - N/A   Unknown
3:00 AM 40.8 °F 35.0 °F - N/A% 30.14 in - East 9.2 mph 17.3 mph N/A   Unknown
4:00 AM 41 °F - - % 30.11 in - ENE 10.4 mph - -  
4:00 AM 41.4 °F 35.2 °F - N/A% 30.11 in - ENE 10.4 mph 19.6 mph N/A   Unknown
5:00 AM 43.2 °F 37.0 °F - N/A% 30.08 in - East 11.5 mph 19.6 mph N/A   Unknown
6:00 AM 44.4 °F 37.9 °F - N/A% 30.06 in - East 13.8 mph 23.0 mph N/A   Unknown
7:00 AM 45 °F - - % 30.06 in - East 15.0 mph - -  
7:00 AM 45.0 °F 38.2 °F - N/A% 30.06 in - East 15.0 mph 25.3 mph N/A   Unknown
8:00 AM 43.3 °F 36.1 °F - N/A% 30.04 in - East 15.0 mph 29.9 mph 0.04 in   Unknown
9:00 AM 43.0 °F 36.8 °F - N/A% 30.05 in - East 11.5 mph 17.3 mph 0.05 in   Unknown
10:00 AM 44 °F - - % 30.06 in - East 10.4 mph - -  
10:00 AM 43.7 °F 38.1 °F - N/A% 30.06 in - East 10.4 mph 21.9 mph 0.05 in   Unknown
11:00 AM 44.6 °F 37.4 °F - N/A% 30.07 in - East 16.1 mph 27.6 mph N/A   Unknown
12:00 PM 45.0 °F 37.4 °F - N/A% 30.08 in - East 18.4 mph 29.9 mph 0.02 in   Unknown
1:00 PM 45 °F - - % 30.09 in - East 19.6 mph - -  
1:00 PM 45.1 °F 37.3 °F - N/A% 30.09 in - East 19.6 mph 31.1 mph 0.03 in   Unknown
2:00 PM 45.3 °F 37.1 °F - N/A% 30.08 in - ESE 21.9 mph 34.5 mph 0.05 in   Unknown
3:00 PM 45.9 °F 38.8 °F - N/A% 30.08 in - East 17.3 mph 33.4 mph 0.11 in   Unknown
4:00 PM 46 °F - - % 30.10 in - East 15.0 mph - -  
4:00 PM 45.9 °F 39.4 °F - N/A% 30.10 in - East 15.0 mph 25.3 mph 0.15 in   Unknown
5:00 PM 46.4 °F 39.8 °F - N/A% 30.07 in - East 16.1 mph 26.5 mph 0.44 in   Unknown
6:00 PM 46.6 °F - - N/A% 30.09 in - East 16.1 mph 28.8 mph 0.44 in   Unknown
7:00 PM 47 °F - - % 30.10 in - East 17.3 mph - -  
7:00 PM 46.8 °F - - N/A% 30.10 in - East 17.3 mph 28.8 mph 0.33 in   Unknown
8:00 PM 46.9 °F - - N/A% 30.11 in - East 15.0 mph 24.2 mph 0.35 in   Unknown
9:00 PM 46.9 °F - - N/A% 30.11 in - East 15.0 mph 21.9 mph 0.25 in   Unknown
10:00 PM 47 °F - - % 30.13 in - East 13.8 mph - -  
10:00 PM 47.1 °F - - N/A% 30.13 in - East 13.8 mph 25.3 mph 0.20 in   Unknown
11:00 PM 47.3 °F - - N/A% 30.14 in - ESE 11.5 mph 19.6 mph 0.28 in   Unknown